User: anonymous   Login
Location: Unspecified
(0.0000°N, 0.0000°E)
Time: 00:02:59
(UTC+00:00)
Language:

S-56A Canister/Altair - Orbit

View from above orbital plane
View from above orbital plane
View from above satellite
View from above satellite

Ground track
Ground track

The orbit data is extracted from the following two-line orbital elements,

1    82U 61004B   17082.55751775 +.00000101 +00000-0 +12700-3 0  9996
2    82 038.8520 253.9670 1168294 140.4314 228.7806 12.25822857662759
Epoch (UTC): 23 March 2017 13:22:49
Eccentricity: 0.1168294
inclination: 38.8520°
perigee height: 639 km
apogee height: 2495 km
right ascension of ascending node: 253.9670°
argument of perigee: 140.4314°
revolutions per day: 12.25822857
mean anomaly at epoch: 228.7806°
orbit number at epoch: 66275

The dashed part of the orbit path shows where the satellite is in the earth's shadow,  

DLR